Вернуться в каталог

KUIPER-00416

АктивенСвязьLEO
NORAD 68931·PAYLOAD·🇺🇸 United States

Запущен Apr 30, 2026 с Guiana Space Centre

Loading…

Ближайшие Пролёты (ближайшие 24 часа)

TLE

СвежийSource: CelesTrak SupGP

Эпоха: Sep 14, 2026, 22:55 UTC

1 68931C 26098N   26257.95496528  .00004475  00000+0  58592-3 0  2570
2 68931  51.9032   7.5689 0000550 112.3475 142.8502 14.79917197    15

Отслеживайте KUIPER-00416 в реальном времени с AllMySat

Download on the App Store